| time (UTC) | temp C | wind direction | speed KPH | gust KPH | rain 1hr cm | rain 24hr cm | rain mn cm | humidity % | barometer mb |
| 20260503021602 | 5 | 0 | 0.0 | 0.0 | 0.00 | 0.00 | 0.00 | 92 | 1019.6 |
| 20260503020101 | 5 | 0 | 0.0 | 0.0 | 0.00 | 0.00 | 0.00 | 92 | 1019.7 |
| 20260503014601 | 5 | 0 | 0.0 | 0.0 | 0.00 | 0.00 | 0.00 | 91 | 1019.8 |
| 20260503013058 | 5 | 0 | 0.0 | 0.0 | 0.00 | 0.00 | 0.00 | 90 | 1019.8 |
| 20260503011602 | 5 | 0 | 0.0 | 0.0 | 0.00 | 0.00 | 0.00 | 89 | 1019.9 |
| 20260503010103 | 6 | 0 | 0.0 | 0.0 | 0.00 | 0.00 | 0.00 | 89 | 1020.1 |
| 20260503004614 | 6 | 0 | 0.0 | 0.0 | 0.00 | 0.00 | 0.00 | 89 | 1020.1 |
| 20260503003113 | 6 | 0 | 0.0 | 0.0 | 0.00 | 0.00 | 0.00 | 89 | 1020.2 |
| 20260503001627 | 6 | 0 | 0.0 | 0.0 | 0.00 | 0.00 | 0.00 | 88 | 1020.2 |
| 20260503000110 | 6 | 0 | 0.0 | 0.0 | 0.00 | 0.00 | 0.00 | 88 | 1020.4 |
| 20260502234613 | 6 | 0 | 0.0 | 0.0 | 0.00 | 0.00 | 0.00 | 87 | 1020.3 |
| 20260502233110 | 7 | 0 | 0.0 | 0.0 | 0.00 | 0.00 | 0.00 | 85 | 1020.4 |
| 20260502231603 | 7 | 0 | 0.0 | 0.0 | 0.00 | 0.00 | 0.00 | 84 | 1020.5 |
| 20260502230108 | 7 | 0 | 0.0 | 0.0 | 0.00 | 0.00 | 0.00 | 83 | 1020.6 |
| 20260502224611 | 8 | 0 | 0.0 | 0.0 | 0.00 | 0.00 | 0.00 | 82 | 1020.7 |
| 20260502223103 | 8 | 0 | 0.0 | 0.0 | 0.00 | 0.00 | 0.00 | 82 | 1020.7 |
| 20260502221558 | 8 | 0 | 0.0 | 0.0 | 0.00 | 0.00 | 0.00 | 81 | 1020.7 |
| 20260502220056 | 8 | 0 | 0.0 | 0.0 | 0.00 | 0.00 | 0.00 | 80 | 1020.7 |
| 20260502214555 | 9 | 0 | 0.0 | 0.0 | 0.00 | 0.00 | 0.00 | 79 | 1020.6 |
| 20260502213107 | 10 | 0 | 0.0 | 0.0 | 0.00 | 0.00 | 0.00 | 77 | 1020.6 |
| 20260502211557 | 10 | 0 | 0.0 | 0.0 | 0.00 | 0.00 | 0.00 | 76 | 1020.5 |
| 20260502210057 | 10 | 0 | 0.0 | 0.0 | 0.00 | 0.00 | 0.00 | 74 | 1020.6 |
| 20260502204605 | 11 | 0 | 0.0 | 0.0 | 0.00 | 0.00 | 0.00 | 72 | 1020.7 |
| 20260502203103 | 11 | 0 | 0.0 | 0.0 | 0.00 | 0.00 | 0.00 | 72 | 1020.6 |
| 20260502201556 | 11 | 0 | 0.0 | 0.0 | 0.00 | 0.00 | 0.00 | 70 | 1020.7 |
| 20260502200126 | 12 | 0 | 0.0 | 0.0 | 0.00 | 0.00 | 0.00 | 69 | 1020.7 |
| 20260502194608 | 12 | 0 | 0.0 | 0.0 | 0.00 | 0.00 | 0.00 | 67 | 1020.6 |
| 20260502193057 | 13 | 0 | 0.0 | 0.0 | 0.00 | 0.00 | 0.00 | 65 | 1020.6 |
| 20260502191602 | 13 | 0 | 0.0 | 0.0 | 0.00 | 0.00 | 0.00 | 62 | 1020.4 |
| 20260502190058 | 14 | 0 | 0.0 | 0.0 | 0.00 | 0.00 | 0.00 | 61 | 1020.2 |
| 20260502184600 | 15 | 0 | 0.0 | 0.0 | 0.00 | 0.00 | 0.00 | 59 | 1020.0 |
| 20260502183111 | 16 | 0 | 0.0 | 0.0 | 0.00 | 0.00 | 0.00 | 55 | 1019.9 |
| 20260502181556 | 17 | 0 | 0.0 | 1.6 | 0.00 | 0.00 | 0.00 | 51 | 1019.7 |
| 20260502163058 | 23 | 134 | 1.6 | 9.7 | 0.00 | 0.00 | 0.00 | 34 | 1019.9 |
| 20260502161603 | 23 | 197 | 1.6 | 8.0 | 0.00 | 0.00 | 0.00 | 33 | 1020.0 |
| 20260502160104 | 23 | 64 | 1.6 | 9.7 | 0.00 | 0.00 | 0.00 | 33 | 1020.2 |
| 20260502151610 | 24 | 72 | 1.6 | 6.4 | 0.00 | 0.00 | 0.00 | 32 | 1020.6 |
| 20260502150130 | 23 | 245 | 4.8 | 12.9 | 0.00 | 0.00 | 0.00 | 33 | 1020.8 |
| 20260502130110 | 23 | 73 | 3.2 | 11.3 | 0.00 | 0.00 | 0.00 | 32 | 1022.2 |
| 20260502123057 | 23 | 137 | 1.6 | 9.7 | 0.00 | 0.00 | 0.00 | 37 | 1022.4 |
| 20260502121602 | 23 | 312 | 0.0 | 8.0 | 0.00 | 0.00 | 0.00 | 33 | 1022.6 |
| 20260502120114 | 22 | 86 | 4.8 | 11.3 | 0.00 | 0.00 | 0.00 | 35 | 1022.8 |
| 20260502114615 | 23 | 35 | 3.2 | 9.7 | 0.00 | 0.00 | 0.00 | 32 | 1023.0 |
| 20260502113114 | 22 | 50 | 6.4 | 17.7 | 0.00 | 0.00 | 0.00 | 35 | 1023.2 |
| 20260502111604 | 22 | 73 | 3.2 | 14.5 | 0.00 | 0.00 | 0.00 | 36 | 1023.2 |
| 20260502110104 | 22 | 203 | 1.6 | 9.7 | 0.00 | 0.00 | 0.00 | 37 | 1023.4 |
| 20260502104557 | 22 | 151 | 3.2 | 9.7 | 0.00 | 0.00 | 0.00 | 38 | 1023.6 |
| 20260502103114 | 22 | 139 | 0.0 | 8.0 | 0.00 | 0.00 | 0.00 | 39 | 1023.9 |
| 20260502101608 | 22 | 167 | 3.2 | 6.4 | 0.00 | 0.00 | 0.00 | 38 | 1024.0 |
| 20260502090108 | 20 | 0 | 0.0 | 6.4 | 0.00 | 0.00 | 0.00 | 41 | 1024.9 |
| 20260502080104 | 18 | 56 | 1.6 | 6.4 | 0.00 | 0.00 | 0.00 | 49 | 1025.4 |
| 20260502064557 | 13 | 0 | 0.0 | 0.0 | 0.00 | 0.00 | 0.00 | 70 | 1025.8 |
| 20260502063124 | 11 | 272 | 0.0 | 1.6 | 0.00 | 0.00 | 0.00 | 71 | 1025.8 |
| 20260502061558 | 11 | 0 | 0.0 | 1.6 | 0.00 | 0.00 | 0.00 | 74 | 1026.1 |
| 20260502060107 | 11 | 338 | 0.0 | 1.6 | 0.00 | 0.00 | 0.00 | 74 | 1026.0 |
| 20260502054625 | 9 | 0 | 0.0 | 1.6 | 0.00 | 0.00 | 0.00 | 75 | 1026.1 |
| 20260502053119 | 7 | 0 | 0.0 | 1.6 | 0.00 | 0.00 | 0.00 | 80 | 1026.2 |
| 20260502051558 | 8 | 0 | 0.0 | 0.0 | 0.00 | 0.00 | 0.00 | 76 | 1026.2 |
| 20260502050059 | 8 | 0 | 0.0 | 0.0 | 0.00 | 0.00 | 0.00 | 80 | 1026.1 |
| 20260502044557 | 6 | 0 | 0.0 | 0.0 | 0.00 | 0.00 | 0.00 | 86 | 1026.2 |
| 20260502043106 | 5 | 0 | 0.0 | 0.0 | 0.00 | 0.00 | 0.00 | 93 | 1026.1 |
| 20260502041556 | 2 | 0 | 0.0 | 0.0 | 0.00 | 0.00 | 0.00 | 94 | 1026.0 |
| 20260502034557 | 2 | 0 | 0.0 | 0.0 | 0.00 | 0.00 | 0.00 | 93 | 1025.9 |
| 20260502033056 | 2 | 0 | 0.0 | 0.0 | 0.00 | 0.00 | 0.00 | 93 | 1025.9 |
| 20260502031557 | 2 | 0 | 0.0 | 0.0 | 0.00 | 0.00 | 0.00 | 92 | 1025.9 |
| 20260502030109 | 3 | 0 | 0.0 | 0.0 | 0.00 | 0.00 | 0.00 | 92 | 1025.9 |
| 20260502024557 | 3 | 0 | 0.0 | 0.0 | 0.00 | 0.00 | 0.00 | 92 | 1025.9 |
| 20260502023100 | 3 | 0 | 0.0 | 0.0 | 0.00 | 0.00 | 0.00 | 91 | 1026.0 |